Weather in Yangantau

Russia / Republic of Bashkortostan     55°18′03″N   58°08′18″E
temp.,
°C
wind,
m/s
gust,
m/s
humid.,
%
clouds,
%
prec.,
mm/h
press.,
hPa
HPBL,
m
3 march, wed
wed323:00−11sw7168699 0.0 1003635
02:00−9sw61787100 0.0 1001573
05:00−8sw6158997 0.0 1001534
08:00−9ssw4109115 0.0 1000198
11:00−4sw5108917 0.0 1000600
14:00−2wsw588399 0.1 1000943
17:00−2wsw478599 0.1 1000902
20:00−7sw3493100 0.0 99986
4 march, thu
thu423:00−9ssw349478 0.0 100084
02:00−7ssw379599 0.1 999165
05:00−8sw41193100 0.1 1000293
08:00−9wsw51093100 0.1 1001462
11:00−9wsw6108889 0.1 1002606
14:00−7wsw7118590 0.0 1001838
17:00−7sw7148695 0.0 1001783
20:00−8sw71688100 0.0 1000705
5 march, fri
fri523:00−7sw71690100 0.1 998863
02:00−5ssw8169397 0.6 995966
05:00−5wsw10179087 1.1 9961003
08:00−6wsw8158792 0.1 1000632
11:00−4wsw7128696 0.1 1001896
14:00−2wsw5885100 0.0 1001872
17:00−2sw2496100 0.6 1001341
20:00−3wsw3697100 1.2 1000284
6 march, sat
sat623:00−5n4797100 3.3 1001354
02:00−8wnw5994100 2.1 1004539
05:00−17w489475 2.2 1011139
08:00−19wsw36966 0.0 1014113
11:00−14wsw59913 0.0 1013367
14:00−9wsw588662 0.0 1013635
17:00−8wsw368681 0.0 1012576
20:00−12sse1190100 0.0 101121
7 march, sun
sun723:00−12e1189100 0.0 100921
02:00−11ene1194100 0.1 100621
05:00−12n1197100 0.8 100521
08:00−12w1197100 0.6 100532
11:00−11wsw5889100 1.1 1006547
14:00−10wsw688594 0.1 1007806
17:00−11wsw698497 0.1 1008850
20:00−18wsw499584 0.0 1011198